Simultaneous Nadir Overpasses (SNOs) Predictions

Prediction of SNOs near equator between AQUA and NPP Satellite Orbit:

Table of predicted SNOs near equator for the next 14.0 days since TLE Epoch: 4/20/2019
Index Date (AQUA) Time (AQUA) AQUA Lat,Lon Date (NPP) Time (NPP) NPP Lat,Lon Distance(km) Time Diff (sec)
1 04/20/2019 08:42:25 5.00, 72.64 04/20/2019 08:32:45 4.96, 72.26 41.87 580
2 04/20/2019 09:30:34 -0.56,-118.76 04/20/2019 09:22:08 -0.40,-119.39 71.57 506
3 04/23/2019 00:58:22 3.22,-171.10 04/23/2019 00:49:11 3.15,-171.57 52.95 551
4 04/23/2019 01:46:32 1.17, -2.51 04/23/2019 01:38:35 1.35, -3.23 82.73 477
5 04/25/2019 16:26:06 -6.12, 136.55 04/25/2019 16:16:08 -6.07, 136.25 33.93 598
6 04/25/2019 17:14:21 1.56, -54.86 04/25/2019 17:05:38 1.41, -55.41 64.09 523
7 04/25/2019 18:02:29 2.95, 113.76 04/25/2019 17:55:01 3.15, 112.94 93.65 448
8 04/28/2019 08:42:04 -4.40,-107.20 04/28/2019 08:32:35 -4.34,-107.60 45.06 569
9 04/28/2019 09:30:18 -0.22, 61.41 04/28/2019 09:22:04 -0.38, 60.75 75.02 494
10 05/01/2019 00:16:12 29.98,-164.84 05/01/2019 00:06:12 30.25,-165.45 65.12 600
11 05/01/2019 00:58:01 -2.69, 9.06 05/01/2019 00:49:00 -2.56, 8.57 56.07 541
12 05/01/2019 01:46:15 -1.94, 177.66 05/01/2019 01:38:30 -2.10, 176.91 85.93 465
13 05/03/2019 16:25:50 5.42, -43.29 05/03/2019 16:16:03 5.36, -43.62 37.02 587
14 05/03/2019 17:13:58 -0.92, 125.32 05/03/2019 17:05:26 -0.80, 124.73 66.98 512
15 05/03/2019 18:02:12 -3.71, -66.07 05/03/2019 17:54:56 -3.86, -66.93 96.69 436




NCC Satellite Simultaneous Nadir Overpasses (SNOs) Prediction Service
